This demonstration page uses our WeatherBlox Daily Observations layout. Learn more.

Left ArrowRight Arrow

38.88101, -77.10428

Hourly Observations for February 15, 2021

Temp ( °F °C ) Dew Point ( °F °C ) Humidity (%) Winds ( mph kmh ) Pressure ( in mb ) Visibility ( mi km ) Precip ( " mm )
12:52 am 00:52 Cloudy 36 2.2 29 -1.7 76 76 N 14 22 30.20 1023 10 16 0.00 0.00
1:52 am 01:52 Cloudy 36 2.2 29 -1.7 76 76 N 10 17 30.20 1023 10 16 0.00 0.00
2:52 am 02:52 Cloudy 36 2.2 30 -1.1 79 79 N 7 11 30.19 1023 9 14 0.00 0.00
3:52 am 03:52 Cloudy 36 2.2 29 -1.7 76 76 NNE 10 17 30.19 1022 10 16 0.00 0.00
4:52 am 04:52 Cloudy 36 2.2 29 -1.7 76 76 NNE 10 17 30.17 1022 10 16 0.00 0.00
5:52 am 05:52 Cloudy 36 2.2 28 -2.2 73 73 NNE 8 13 30.18 1022 10 16 0.00 0.00
6:52 am 06:52 Cloudy 36 2.2 28 -2.2 73 73 N 8 13 30.19 1022 10 16 0.00 0.00
7:52 am 07:52 Cloudy 37 2.8 28 -2.2 70 70 NNE 8 13 30.20 1023 10 16 0.00 0.00
8:52 am 08:52 Cloudy 38 3.3 28 -2.2 68 68 N 7 11 30.23 1024 10 16 0.00 0.00
9:52 am 09:52 Cloudy 38 3.3 30 -1.1 73 73 NE 6 9 30.19 1023 10 16 0.00 0.00
10:52 am 10:52 Cloudy 39 3.9 30 -1.1 70 70 NNE 5 7 30.20 1023 10 16 0.00 0.00
11:42 am 11:42 Cloudy 40 4.4 30 -1.1 68 68 Calm 30.20 1023 10 16 0.00 0.00
11:52 am 11:52 Cloudy 40 4.4 30 -1.1 68 68 Calm 30.19 1023 10 16 0.00 0.00
12:52 pm 12:52 Cloudy 40 4.4 31 -0.6 70 70 E 5 7 30.15 1021 10 16 0.00 0.00
1:52 pm 13:52 Cloudy 41 5 32 0 70 70 ESE 3 6 30.13 1020 10 16 0.00 0.00
2:52 pm 14:52 Cloudy 40 4.4 33 0.6 77 77 NE 6 9 30.11 1020 8 13 0.00 0.00
3:52 pm 15:52 Cloudy 40 4.4 33 0.6 77 77 NE 3 6 30.12 1020 7 11 0.00 0.00
4:26 pm 16:26 Cloudy with Drizzle 39 3.9 34 1.1 82 82 ENE 9 15 30.11 1020 3 5 0.00 0.00
4:29 pm 16:29 Cloudy with Drizzle 39 3.9 34 1.1 82 82 ENE 10 17 30.10 1019 3 4 0.00 0.00
4:33 pm 16:33 Cloudy with Light Rain 38 3.3 35 1.7 89 89 NE 12 19 30.10 1019 2 3 0.00 0.00
4:39 pm 16:39 Cloudy with Mist and Fog 38 3.3 35 1.7 89 89 ENE 9 15 30.10 1019 2 3 0.00 0.00
4:52 pm 16:52 Cloudy with Drizzle 38 3.3 35 1.7 89 89 ENE 10 17 30.10 1019 3 4 0.00 0.00
4:56 pm 16:56 Cloudy with Drizzle 38 3.3 35 1.7 89 89 ENE 10 17 30.10 1019 3 5 0.00 0.00
5:15 pm 17:15 Cloudy with Drizzle 38 3.3 35 1.7 89 89 NE 9 15 30.09 1019 3 5 0.00 0.00
5:52 pm 17:52 Cloudy with Mist and Fog 37 2.8 34 1.1 89 89 ENE 12 19 30.08 1019 6 10 0.00 0.00
6:00 pm 18:00 Cloudy with Drizzle 37 2.8 34 1.1 89 89 ENE 12 19 30.08 1019 5 8 0.00 0.00
6:07 pm 18:07 Cloudy with Drizzle 37 2.8 34 1.1 89 89 ENE 10 17 30.08 1019 4 6 0.00 0.00
6:41 pm 18:41 Cloudy with Mist and Fog 36 2.2 34 1.1 93 93 NE 10 17 30.07 1018 3 5 0.00 0.00
6:47 pm 18:47 Cloudy with Drizzle 36 2 34 1 93 93 ENE 10 17 30.06 1018 3 4 0.00 0.00
6:52 pm 18:52 Cloudy with Drizzle 36 2.2 34 1.1 93 93 ENE 10 17 30.06 1018 3 4 0.00 0.00
7:03 pm 19:03 Cloudy with Drizzle 36 2.2 34 1.1 93 93 ENE 8 13 30.06 1018 3 4 0.00 0.00
7:10 pm 19:10 Cloudy with Drizzle 36 2.2 34 1.1 93 93 ENE 7 11 30.05 1018 3 4 0.00 0.00
7:18 pm 19:18 Cloudy with Drizzle 36 2.2 34 1.1 93 93 ENE 8 13 30.06 1018 3 5 0.00 0.00
7:33 pm 19:33 Cloudy with Drizzle 36 2.2 34 1.1 93 93 ENE 9 15 30.04 1017 3 5 0.00 0.00
7:52 pm 19:52 Cloudy with Drizzle 36 2.2 34 1.1 93 93 ENE 9 15 30.03 1017 3 5 0.00 0.00
7:58 pm 19:58 Cloudy with Drizzle 36 2.2 34 1.1 93 93 ENE 6 9 30.03 1017 3 4 0.00 0.00
8:18 pm 20:18 Cloudy with Drizzle 36 2.2 34 1.1 93 93 NE 7 11 30.02 1017 2 3 0.00 0.00
8:52 pm 20:52 Cloudy with Drizzle 36 2.2 34 1.1 93 93 NE 7 11 29.98 1015 1 2 0.01 0.25
9:52 pm 21:52 Cloudy with Drizzle 36 2.2 35 1.7 97 97 ENE 5 7 29.94 1014 2 2 0.02 0.51
10:23 pm 22:23 Cloudy with Rain 37 2.8 34 1.1 89 89 Calm 29.95 1014 2 3 0.02 0.51
10:38 pm 22:38 Cloudy with Rain 37 2.8 35 1.7 93 93 NNE 3 6 29.93 1014 2 3 0.08 2.03
10:52 pm 22:52 Cloudy with Heavy Rain 36 2.2 35 1.7 97 97 N 6 9 29.92 1013 2 2 0.17 4.32
11:13 pm 23:13 Cloudy with Heavy Rain 37 2.8 35 1.7 93 93 NE 5 7 29.91 1013 2 3 0.18 4.57
11:18 pm 23:18 Cloudy with Rain 37 2.8 36 2.2 96 96 NE 3 6 29.91 1013 3 4 0.21 5.33
11:21 pm 23:21 Cloudy with Rain 37 2.8 36 2.2 96 96 Calm 29.91 1013 3 5 0.22 5.59
11:52 pm 23:52 Cloudy with Heavy Rain 36 2.2 35 1.7 97 97 ENE 5 7 29.87 1012 3 5 0.28 7.11

Powered by AerisWeather